Overview Statistics Trail Chart Weather Telemetry Raw packets
 

This is the latest recevied weather packets stored in our database for station/object KC1TEM-13. If no packets are shown the sender has not sent any weather packets the latest 10 day(s).

<< 39 40 41 42 43 44 45 >>
Time Temp. Humidity Pressure Rain* Wind** Luminosity Snow
1788352061 17.22° C 98% 1023.3 hPa 0 mm - 65 W/m² -
1788351757 17.22° C 98% 1023.2 hPa 0 mm - 57 W/m² -
1788351456 17.22° C 99% 1022.9 hPa 0 mm - 59 W/m² -
1788351152 17.22° C 99% 1023.3 hPa 0 mm - 50 W/m² -
1788350847 17.22° C 99% 1023.2 hPa 0 mm - 41 W/m² -
1788350544 17.22° C 99% 1023.2 hPa 0 mm - 30 W/m² -
1788350244 17.22° C 99% 1023.1 hPa 0 mm - 34 W/m² -
1788349940 17.22° C 99% 1023.4 hPa 0 mm - 30 W/m² -
1788349636 17.22° C 99% 1023.3 hPa 0 mm - 28 W/m² -
1788349331 16.67° C 99% 1023.2 hPa 0 mm - 25 W/m² -
1788349038 16.67° C 99% 1023.1 hPa 0 mm - 19 W/m² -
1788348727 16.67° C 99% 1023.1 hPa 0 mm - 10 W/m² -
1788348426 17.22° C 99% 1023 hPa 0 mm - 21 W/m² -
1788348124 16.67° C 99% 1022.8 hPa 0 mm - 35 W/m² -
1788347819 16.67° C 99% 1022.9 hPa 0 mm - 63 W/m² -
1788347515 16.67° C 99% 1022.6 hPa 0 mm - 51 W/m² -
1788347210 16.67° C 99% 1022.9 hPa 0 mm - 36 W/m² -
1788346907 16.67° C 99% 1022.9 hPa 0 mm - 41 W/m² -
1788346606 16.67° C 99% 1022.6 hPa 0 mm - 40 W/m² -
1788346301 16.67° C 99% 1022.5 hPa 0 mm - 40 W/m² -
1788345996 16.67° C 99% 1022.6 hPa 0 mm - 29 W/m² -
1788345692 16.67° C 99% 1022.5 hPa 0 mm - 27 W/m² -
1788345391 16.67° C 99% 1022.5 hPa 0 mm - 23 W/m² -
1788345087 16.67° C 99% 1022.3 hPa 0 mm - 14 W/m² -
1788344783 16.67° C 99% 1022.4 hPa 0 mm - 8 W/m² -

* Rain latest hour (hover to see other rain measurements)
** Current wind speed in m/s (hover to see current wind gust speed)